This is the latest recevied weather packets stored in our database for station/object W5MAI. If no packets are shown the sender has not sent any weather packets the latest 10 day(s).
| Time | Temp. | Humidity | Pressure | Rain* | Wind** | Luminosity | Snow |
|---|---|---|---|---|---|---|---|
| 1778079238 | 23.89° C | 89% | 1011.9 hPa | 0 mm | - | 125 W/m² | - |
| 1778078611 | 23.89° C | 89% | 1011.9 hPa | 0 mm | - | 100 W/m² | - |
| 1778077404 | 23.89° C | 89% | 1012.1 hPa | 0 mm | - | 62 W/m² | - |
| 1778076839 | 23.89° C | 90% | 1012 hPa | 0 mm | - | 56 W/m² | - |
| 1778076212 | 23.89° C | 90% | 1011.6 hPa | 0 mm | - | 53 W/m² | - |
| 1778075008 | 23.89° C | 90% | 1011 hPa | 0 mm | - | 62 W/m² | - |
| 1778074432 | 23.89° C | 90% | 1010.7 hPa | 0 mm | - | 37 W/m² | - |
| 1778073853 | 23.89° C | 90% | 1010.6 hPa | 0 mm | - | 54 W/m² | - |
| 1778073208 | 23.89° C | 90% | 1010.6 hPa | 0 mm | - | 32 W/m² | - |
| 1778072631 | 23.89° C | 90% | 1010.4 hPa | 0 mm | - | 67 W/m² | - |
| 1778072004 | 23.33° C | 90% | 1010.2 hPa | 0 mm | - | 56 W/m² | - |
| 1778071436 | 23.33° C | 90% | 1010.4 hPa | 0 mm | - | 40 W/m² | - |
| 1778070860 | 23.33° C | 90% | 1010.3 hPa | 0 mm | - | 30 W/m² | - |
| 1778070223 | 23.33° C | 90% | 1010.4 hPa | 0 mm | - | 21 W/m² | - |
| 1778069640 | 23.33° C | 90% | 1010.5 hPa | 0 mm | - | 9 W/m² | - |
| 1778069010 | 23.33° C | 90% | 1010.4 hPa | 0 mm | - | 0 W/m² | - |
| 1778068446 | 23.33° C | 90% | 1010.4 hPa | 0 mm | - | 0 W/m² | - |
| 1778067805 | 23.33° C | 90% | 1010.3 hPa | 0 mm | - | 0 W/m² | - |
| 1778067239 | 23.33° C | 90% | 1010.2 hPa | 0 mm | - | 0 W/m² | - |
| 1778066655 | 23.33° C | 89% | 1010.2 hPa | 0 mm | - | 0 W/m² | - |
| 1778064819 | 23.33° C | 89% | 1010.1 hPa | 0 mm | - | 0 W/m² | - |
| 1778064225 | 23.33° C | 89% | 1010 hPa | 0 mm | - | 0 W/m² | - |
| 1778063638 | 23.33° C | 90% | 1009.8 hPa | 0 mm | - | 0 W/m² | - |
| 1778063057 | 23.33° C | 90% | 1009.9 hPa | 0 mm | - | 0 W/m² | - |
| 1778061805 | 23.33° C | 90% | 1010 hPa | 0 mm | - | 0 W/m² | - |
* Rain latest hour (hover to see other rain measurements)
** Current wind speed in m/s (hover to see current wind gust speed)